When you browse on this site, cookies collect data to enhance your experience and personalize the content and advertising you see.
Visit our Privacy Policy to learn more. By continuing to use the site, you agree to this use of cookies and data.
  • In Latvia
  • List of Countries
  • For 7 days
  • Water Temperature
  • Weather Map
  • Weather Widgets
  • user-avatar
    Login

    Hourly Weather Graz

    Today, 18 August, Sunday

    Time Temperature Precipitation Wind Pressure Humidity
    00:00 +19°C° 0 mm 1 mps 724 mmHg 78%
    01:00 +19°C° 0 mm 1 mps 724 mmHg 79%
    02:00 +19°C° 0 mm 1 mps 724 mmHg 78%
    03:00 +19°C° 0 mm 1 mps 724 mmHg 77%
    04:00 +19°C° 0 mm 1 mps 723 mmHg 76%
    05:00 +20°C° 0 mm 1 mps 724 mmHg 75%
    06:00 +21°C° 0 mm 1 mps 724 mmHg 74%
    07:00 +22°C° 0 mm 1 mps 724 mmHg 73%
    08:00 +24°C° 0 mm 1 mps 724 mmHg 64%
    09:00 +26°C° 0 mm 1 mps 724 mmHg 55%
    10:00 +29°C° 0 mm 1 mps 724 mmHg 47%
    11:00 +30°C° 0 mm 1 mps 724 mmHg 43%
    12:00 +31°C° 0 mm 1 mps 724 mmHg 40%
    13:00 +32°C° 0 mm 2 mps 724 mmHg 36%
    14:00 +31°C° 0 mm 2 mps 724 mmHg 38%
    15:00 +31°C° 0 mm 2 mps 724 mmHg 40%
    16:00 +31°C° 0 mm 2 mps 723 mmHg 41%
    17:00 +28°C° 0 mm 2 mps 723 mmHg 52%
    18:00 +26°C° 0 mm 1 mps 723 mmHg 63%
    19:00 +24°C° 0 mm 1 mps 723 mmHg 74%
    20:00 +23°C° 0 mm 1 mps 723 mmHg 77%
    21:00 +22°C° 0 mm 1 mps 723 mmHg 79%
    22:00 +21°C° 0 mm 1 mps 723 mmHg 82%
    23:00 +20°C° 0 mm 1 mps 723 mmHg 83%

    Tomorrow, 19 August, Monday

    Time Temperature Precipitation Wind Pressure Humidity
    00:00 +20°C° 0 mm 1 mps 723 mmHg 85%
    01:00 +19°C° 0 mm 1 mps 723 mmHg 86%
    02:00 +19°C° 0 mm 1 mps 723 mmHg 87%
    03:00 +19°C° 0 mm 1 mps 723 mmHg 87%
    04:00 +18°C° 0 mm 1 mps 724 mmHg 88%
    05:00 +19°C° 0 mm 1 mps 724 mmHg 84%
    06:00 +20°C° 0 mm 1 mps 725 mmHg 81%
    07:00 +22°C° 0 mm 1 mps 725 mmHg 77%
    08:00 +23°C° 0 mm 1 mps 726 mmHg 73%
    09:00 +24°C° 0 mm 1 mps 726 mmHg 70%
    10:00 +26°C° 0 mm 1 mps 726 mmHg 66%
    11:00 +27°C° 0.3 mm 1 mps 727 mmHg 64%
    12:00 +28°C° 0.3 mm 1 mps 727 mmHg 61%
    13:00 +28°C° 0.3 mm 1 mps 727 mmHg 59%
    14:00 +28°C° 0.6 mm 1 mps 727 mmHg 63%
    15:00 +27°C° 0.6 mm 1 mps 726 mmHg 67%
    16:00 +26°C° 0.6 mm 1 mps 726 mmHg 71%
    17:00 +25°C° 0.2 mm 1 mps 726 mmHg 75%
    18:00 +23°C° 0.2 mm 1 mps 726 mmHg 79%
    19:00 +22°C° 0.2 mm 1 mps 726 mmHg 82%
    20:00 +22°C° 0 mm 1 mps 726 mmHg 83%
    21:00 +21°C° 0 mm 1 mps 727 mmHg 84%
    22:00 +20°C° 0 mm 1 mps 727 mmHg 84%
    23:00 +20°C° 0 mm 1 mps 727 mmHg 85%

    Day after tomorrow, 20 August, Tuesday

    Time Temperature Precipitation Wind Pressure Humidity
    00:00 +20°C° 0 mm 1 mps 727 mmHg 85%
    01:00 +20°C° 0 mm 1 mps 727 mmHg 85%
    02:00 +19°C° 0 mm 1 mps 727 mmHg 85%
    03:00 +19°C° 0 mm 1 mps 727 mmHg 86%
    04:00 +19°C° 0 mm 1 mps 727 mmHg 86%
    05:00 +18°C° 0 mm 0 mps 727 mmHg 84%
    06:00 +19°C° 0 mm 0 mps 727 mmHg 82%
    07:00 +20°C° 0 mm 0 mps 727 mmHg 80%
    08:00 +22°C° 0 mm 0 mps 727 mmHg 72%
    09:00 +26°C° 0 mm 1 mps 727 mmHg 63%
    10:00 +28°C° 0 mm 1 mps 728 mmHg 55%
    11:00 +29°C° 0 mm 1 mps 727 mmHg 53%
    12:00 +29°C° 0 mm 2 mps 727 mmHg 51%
    13:00 +30°C° 0 mm 2 mps 727 mmHg 49%
    14:00 +30°C° 0.1 mm 2 mps 726 mmHg 50%
    15:00 +30°C° 0.1 mm 2 mps 726 mmHg 52%
    16:00 +30°C° 0.1 mm 2 mps 725 mmHg 53%
    17:00 +28°C° 0 mm 2 mps 725 mmHg 62%
    18:00 +26°C° 0 mm 1 mps 725 mmHg 70%
    19:00 +24°C° 0 mm 1 mps 725 mmHg 79%
    20:00 +24°C° 0.1 mm 1 mps 726 mmHg 81%
    21:00 +23°C° 0.1 mm 1 mps 727 mmHg 83%
    22:00 +21°C° 0.1 mm 2 mps 727 mmHg 85%
    23:00 +20°C° 0.1 mm 2 mps 727 mmHg 86%

    21 August, Wednesday

    Time Temperature Precipitation Wind Pressure Humidity
    00:00 +19°C° 0.1 mm 2 mps 727 mmHg 86%
    01:00 +18°C° 0.1 mm 3 mps 727 mmHg 87%
    02:00 +17°C° 0 mm 2 mps 728 mmHg 86%
    03:00 +17°C° 0 mm 2 mps 728 mmHg 86%
    04:00 +16°C° 0 mm 2 mps 728 mmHg 85%
    05:00 +17°C° 0 mm 2 mps 728 mmHg 83%
    06:00 +17°C° 0 mm 2 mps 729 mmHg 81%
    07:00 +19°C° 0 mm 1 mps 729 mmHg 79%
    08:00 +21°C° 0 mm 1 mps 730 mmHg 72%
    09:00 +22°C° 0 mm 1 mps 730 mmHg 65%
    10:00 +24°C° 0 mm 1 mps 730 mmHg 58%
    11:00 +24°C° 0.1 mm 1 mps 730 mmHg 59%
    12:00 +25°C° 0.1 mm 1 mps 730 mmHg 59%
    13:00 +25°C° 0.1 mm 1 mps 730 mmHg 59%
    14:00 +25°C° 0.1 mm 1 mps 730 mmHg 62%
    15:00 +25°C° 0.1 mm 1 mps 730 mmHg 64%
    16:00 +24°C° 0.1 mm 2 mps 730 mmHg 66%
    17:00 +23°C° 0 mm 1 mps 729 mmHg 71%
    18:00 +22°C° 0 mm 1 mps 729 mmHg 76%
    19:00 +21°C° 0 mm 1 mps 729 mmHg 81%
    20:00 +20°C° 0 mm 1 mps 729 mmHg 82%
    21:00 +19°C° 0 mm 1 mps 730 mmHg 84%
    22:00 +17°C° 0 mm 0 mps 730 mmHg 86%
    23:00 +18°C° 0 mm 1 mps 729 mmHg 87%

    22 August, Thursday

    Time Temperature Precipitation Wind Pressure Humidity
    00:00 +18°C° 0 mm 1 mps 729 mmHg 88%
    01:00 +16°C° 0 mm 1 mps 729 mmHg 89%
    02:00 +16°C° 0 mm 1 mps 729 mmHg 89%
    03:00 +16°C° 0 mm 1 mps 729 mmHg 89%
    04:00 +16°C° 0 mm 1 mps 729 mmHg 88%
    05:00 +16°C° 0 mm 1 mps 729 mmHg 85%
    06:00 +18°C° 0 mm 1 mps 729 mmHg 82%
    07:00 +19°C° 0 mm 1 mps 729 mmHg 79%
    08:00 +21°C° 0 mm 1 mps 730 mmHg 72%
    09:00 +23°C° 0 mm 1 mps 730 mmHg 65%
    10:00 +25°C° 0 mm 1 mps 730 mmHg 58%
    11:00 +26°C° 0 mm 1 mps 730 mmHg 57%
    12:00 +26°C° 0 mm 1 mps 730 mmHg 55%
    13:00 +27°C° 0 mm 1 mps 729 mmHg 54%
    14:00 +26°C° 0 mm 1 mps 729 mmHg 56%
    15:00 +26°C° 0 mm 1 mps 729 mmHg 58%
    16:00 +26°C° 0 mm 1 mps 729 mmHg 59%
    17:00 +24°C° 0 mm 1 mps 729 mmHg 66%
    18:00 +22°C° 0 mm 1 mps 729 mmHg 72%
    19:00 +21°C° 0 mm 1 mps 729 mmHg 79%
    20:00 +20°C° 0 mm 1 mps 729 mmHg 80%
    21:00 +19°C° 0 mm 1 mps 729 mmHg 81%
    22:00 +19°C° 0 mm 1 mps 730 mmHg 83%
    23:00 +18°C° 0 mm 1 mps 730 mmHg 83%

    23 August, Friday

    Time Temperature Precipitation Wind Pressure Humidity
    00:00 +18°C° 0 mm 1 mps 730 mmHg 84%
    01:00 +18°C° 0 mm 1 mps 730 mmHg 85%
    02:00 +16°C° 0 mm 1 mps 729 mmHg 86%
    03:00 +16°C° 0 mm 1 mps 729 mmHg 86%
    04:00 +16°C° 0 mm 1 mps 729 mmHg 87%
    05:00 +18°C° 0 mm 1 mps 729 mmHg 83%
    06:00 +19°C° 0 mm 1 mps 730 mmHg 80%
    07:00 +17°C° 0 mm 0 mps 730 mmHg 77%
    08:00 +21°C° 0 mm 1 mps 730 mmHg 70%
    09:00 +23°C° 0 mm 1 mps 730 mmHg 62%
    10:00 +25°C° 0 mm 1 mps 730 mmHg 55%
    11:00 +26°C° 0 mm 1 mps 730 mmHg 52%
    12:00 +27°C° 0 mm 1 mps 729 mmHg 50%
    13:00 +27°C° 0 mm 1 mps 729 mmHg 47%
    14:00 +27°C° 0 mm 1 mps 729 mmHg 48%
    15:00 +27°C° 0 mm 1 mps 728 mmHg 49%
    16:00 +27°C° 0 mm 1 mps 728 mmHg 50%
    17:00 +25°C° 0 mm 1 mps 728 mmHg 58%
    18:00 +23°C° 0 mm 1 mps 728 mmHg 67%
    19:00 +21°C° 0 mm 1 mps 727 mmHg 75%
    20:00 +21°C° 0 mm 1 mps 728 mmHg 77%
    21:00 +20°C° 0 mm 1 mps 728 mmHg 79%
    22:00 +19°C° 0 mm 1 mps 728 mmHg 80%
    23:00 +19°C° 0 mm 1 mps 728 mmHg 81%
    Show more